Time,TemperatureF,DewpointF,PressureIn,WindDirection,WindDirectionDegrees,WindSpeedMPH,WindSpeedGustMPH,Humidity,HourlyPrecipIn,Conditions,Clouds,dailyrainin,SoftwareType,DateUTC
2013-02-13 00:01:00,45.0,39.0,30.32,South,177,13.0,19.0,78,0.00,,,0.00,,2013-02-13 08:01:00,
2013-02-13 00:11:00,45.0,39.0,30.31,South,191,16.0,23.0,78,0.00,,,0.00,,2013-02-13 08:11:00,
2013-02-13 00:21:00,45.0,39.0,30.31,South,191,16.0,23.0,78,0.00,,,0.00,,2013-02-13 08:21:00,
2013-02-13 00:31:00,45.0,38.0,30.31,SSW,198,18.0,27.0,77,0.00,,,0.00,,2013-02-13 08:31:00,
2013-02-13 00:42:00,45.0,38.0,30.31,SSW,198,18.0,27.0,77,0.00,,,0.00,,2013-02-13 08:42:00,
2013-02-13 00:52:00,45.0,39.0,30.32,SSW,210,19.0,26.0,78,0.00,,,0.00,,2013-02-13 08:52:00,
2013-02-13 01:01:00,46.0,40.0,30.31,SW,224,19.0,29.0,78,0.00,,,0.00,,2013-02-13 09:01:00,
2013-02-13 01:11:00,46.0,39.0,30.31,SW,219,20.0,25.0,77,0.00,,,0.00,,2013-02-13 09:11:00,
2013-02-13 01:21:00,46.0,39.0,30.31,SW,219,20.0,25.0,77,0.00,,,0.00,,2013-02-13 09:21:00,
2013-02-13 01:31:00,46.0,40.0,30.31,SW,222,17.0,25.0,78,0.00,,,0.00,,2013-02-13 09:31:00,
2013-02-13 01:41:00,46.0,40.0,30.32,SSW,201,18.0,25.0,78,0.00,,,0.00,,2013-02-13 09:41:00,
2013-02-13 01:52:00,46.0,40.0,30.32,SSW,201,18.0,25.0,78,0.00,,,0.00,,2013-02-13 09:52:00,
2013-02-13 02:01:00,45.0,39.0,30.32,SSW,198,16.0,25.0,79,0.00,,,0.00,,2013-02-13 10:01:00,
2013-02-13 02:11:00,46.0,40.0,30.32,South,191,19.0,27.0,79,0.00,,,0.00,,2013-02-13 10:11:00,
2013-02-13 02:21:00,46.0,40.0,30.32,South,191,19.0,27.0,79,0.00,,,0.00,,2013-02-13 10:21:00,
2013-02-13 02:31:00,46.0,40.0,30.32,South,183,19.0,27.0,79,0.00,,,0.00,,2013-02-13 10:31:00,
2013-02-13 02:41:00,46.0,40.0,30.32,SSW,196,16.0,25.0,79,0.00,,,0.00,,2013-02-13 10:41:00,
2013-02-13 02:51:00,46.0,40.0,30.32,SSW,196,16.0,25.0,79,0.00,,,0.00,,2013-02-13 10:51:00,
2013-02-13 03:01:00,46.0,40.0,30.31,SSW,194,16.0,24.0,78,0.00,,,0.00,,2013-02-13 11:01:00,
2013-02-13 03:11:00,47.0,40.0,30.29,SW,230,17.0,25.0,76,0.00,,,0.00,,2013-02-13 11:11:00,
2013-02-13 03:22:00,47.0,40.0,30.29,SW,230,17.0,25.0,76,0.00,,,0.00,,2013-02-13 11:22:00,
2013-02-13 03:31:00,47.0,39.0,30.31,South,183,17.0,24.0,75,0.00,,,0.00,,2013-02-13 11:31:00,
2013-02-13 03:41:00,47.0,39.0,30.31,SSW,210,15.0,27.0,75,0.00,,,0.00,,2013-02-13 11:41:00,
2013-02-13 03:52:00,47.0,39.0,30.31,SSW,210,15.0,27.0,75,0.00,,,0.00,,2013-02-13 11:52:00,
2013-02-13 04:02:00,47.0,39.0,30.32,SSW,212,18.0,24.0,74,0.00,,,0.00,,2013-02-13 12:02:00,
2013-02-13 04:11:00,47.0,39.0,30.30,SW,219,15.0,22.0,75,0.00,,,0.00,,2013-02-13 12:11:00,
2013-02-13 04:21:00,47.0,39.0,30.30,SW,219,15.0,22.0,75,0.00,,,0.00,,2013-02-13 12:21:00,
2013-02-13 04:31:00,47.0,39.0,30.29,SSW,205,18.0,25.0,75,0.00,,,0.00,,2013-02-13 12:31:00,
2013-02-13 04:42:00,47.0,39.0,30.30,SSW,201,15.0,23.0,75,0.00,,,0.00,,2013-02-13 12:42:00,
2013-02-13 04:52:00,47.0,39.0,30.30,SSW,201,15.0,23.0,75,0.00,,,0.00,,2013-02-13 12:52:00,
2013-02-13 05:02:00,46.0,39.0,30.30,SSW,196,19.0,25.0,76,0.00,,,0.00,,2013-02-13 13:02:00,
2013-02-13 05:11:00,46.0,39.0,30.29,SSW,197,20.0,28.0,76,0.00,,,0.00,,2013-02-13 13:11:00,
2013-02-13 05:21:00,46.0,39.0,30.29,SSW,197,20.0,28.0,76,0.00,,,0.00,,2013-02-13 13:21:00,
2013-02-13 05:31:00,47.0,40.0,30.30,SW,218,17.0,30.0,76,0.00,,,0.00,,2013-02-13 13:31:00,
2013-02-13 05:41:00,46.0,39.0,30.30,SSW,203,17.0,26.0,76,0.00,,,0.00,,2013-02-13 13:41:00,
2013-02-13 05:52:00,46.0,39.0,30.30,SSW,203,17.0,26.0,76,0.00,,,0.00,,2013-02-13 13:52:00,
2013-02-13 06:01:00,46.0,39.0,30.31,SSW,211,18.0,25.0,76,0.00,,,0.00,,2013-02-13 14:01:00,
2013-02-13 06:11:00,47.0,39.0,30.32,SW,219,15.0,25.0,75,0.00,,,0.00,,2013-02-13 14:11:00,
2013-02-13 06:21:00,47.0,39.0,30.32,SW,219,15.0,25.0,75,0.00,,,0.00,,2013-02-13 14:21:00,
2013-02-13 06:31:00,47.0,39.0,30.32,SW,214,18.0,24.0,75,0.00,,,0.00,,2013-02-13 14:31:00,
2013-02-13 06:41:00,47.0,39.0,30.30,SSW,205,17.0,25.0,75,0.00,,,0.00,,2013-02-13 14:41:00,
2013-02-13 06:52:00,47.0,39.0,30.30,SSW,205,17.0,25.0,75,0.00,,,0.00,,2013-02-13 14:52:00,
2013-02-13 07:01:00,47.0,39.0,30.30,SSW,196,19.0,25.0,74,0.00,,,0.00,,2013-02-13 15:01:00,
2013-02-13 07:11:00,46.0,39.0,30.33,SSW,202,14.0,22.0,75,0.00,,,0.00,,2013-02-13 15:11:00,
2013-02-13 07:21:00,46.0,39.0,30.33,SSW,202,14.0,22.0,75,0.00,,,0.00,,2013-02-13 15:21:00,
2013-02-13 07:31:00,46.0,39.0,30.32,SW,229,16.0,22.0,75,0.00,,,0.00,,2013-02-13 15:31:00,
2013-02-13 07:41:00,46.0,39.0,30.32,SW,229,16.0,22.0,75,0.00,,,0.00,,2013-02-13 15:41:00,
2013-02-13 07:52:00,46.0,39.0,30.33,SSW,212,15.0,21.0,76,0.00,,,0.00,,2013-02-13 15:52:00,
2013-02-13 08:01:00,46.0,39.0,30.34,SW,233,16.0,20.0,76,0.00,,,0.00,,2013-02-13 16:01:00,
2013-02-13 08:11:00,45.0,38.0,30.34,SW,221,13.0,19.0,77,0.00,,,0.00,,2013-02-13 16:11:00,
2013-02-13 08:21:00,45.0,38.0,30.34,SW,221,13.0,19.0,77,0.00,,,0.00,,2013-02-13 16:21:00,
2013-02-13 08:31:00,46.0,39.0,30.34,SW,221,13.0,19.0,75,0.00,,,0.00,,2013-02-13 16:31:00,
2013-02-13 08:41:00,46.0,39.0,30.34,SW,221,13.0,19.0,75,0.00,,,0.00,,2013-02-13 16:41:00,
2013-02-13 08:52:00,46.0,38.0,30.35,SSW,213,11.0,16.0,74,0.00,,,0.00,,2013-02-13 16:52:00,
2013-02-13 09:01:00,47.0,39.0,30.35,SSW,198,10.0,18.0,74,0.00,,,0.00,,2013-02-13 17:01:00,
2013-02-13 09:11:00,47.0,38.0,30.36,SW,228,13.0,17.0,70,0.00,,,0.00,,2013-02-13 17:11:00,
2013-02-13 09:21:00,47.0,38.0,30.36,SW,228,13.0,17.0,70,0.00,,,0.00,,2013-02-13 17:21:00,
2013-02-13 09:31:00,47.0,38.0,30.36,SW,214,8.0,14.0,70,0.00,,,0.00,,2013-02-13 17:31:00,
2013-02-13 09:41:00,47.0,38.0,30.36,SW,214,8.0,14.0,70,0.00,,,0.00,,2013-02-13 17:41:00,
2013-02-13 09:52:00,48.0,37.0,30.36,WSW,245,8.0,12.0,66,0.00,,,0.00,,2013-02-13 17:52:00,
2013-02-13 10:01:00,49.0,37.0,30.36,WSW,245,8.0,14.0,63,0.00,,,0.00,,2013-02-13 18:01:00,
2013-02-13 10:11:00,50.0,37.0,30.37,WSW,252,7.0,14.0,61,0.00,,,0.00,,2013-02-13 18:11:00,
2013-02-13 10:22:00,50.0,37.0,30.37,WSW,252,7.0,14.0,61,0.00,,,0.00,,2013-02-13 18:22:00,
2013-02-13 10:31:00,50.0,37.0,30.37,West,275,7.0,10.0,60,0.00,,,0.00,,2013-02-13 18:31:00,
2013-02-13 10:41:00,50.0,37.0,30.37,West,275,7.0,10.0,60,0.00,,,0.00,,2013-02-13 18:41:00,
2013-02-13 10:52:00,50.0,37.0,30.37,West,259,4.0,7.0,61,0.00,,,0.00,,2013-02-13 18:52:00,
2013-02-13 11:01:00,50.0,36.0,30.37,West,264,7.0,11.0,58,0.00,,,0.00,,2013-02-13 19:01:00,
2013-02-13 11:11:00,51.0,35.0,30.37,WSW,239,8.0,12.0,55,0.00,,,0.00,,2013-02-13 19:11:00,
2013-02-13 11:21:00,51.0,35.0,30.37,WSW,239,8.0,12.0,55,0.00,,,0.00,,2013-02-13 19:21:00,
2013-02-13 11:31:00,51.0,35.0,30.38,SSW,211,6.0,9.0,55,0.00,,,0.00,,2013-02-13 19:31:00,
2013-02-13 11:41:00,51.0,35.0,30.38,SSW,211,6.0,9.0,55,0.00,,,0.00,,2013-02-13 19:41:00,
2013-02-13 11:52:00,51.0,36.0,30.37,SSW,203,7.0,12.0,57,0.00,,,0.00,,2013-02-13 19:52:00,
2013-02-13 12:01:00,51.0,36.0,30.37,SSW,198,9.0,12.0,56,0.00,,,0.00,,2013-02-13 20:01:00,
2013-02-13 12:11:00,51.0,36.0,30.36,SW,226,7.0,12.0,56,0.00,,,0.00,,2013-02-13 20:11:00,
2013-02-13 12:21:00,51.0,36.0,30.36,SW,226,7.0,12.0,56,0.00,,,0.00,,2013-02-13 20:21:00,
2013-02-13 12:31:00,51.0,35.0,30.36,SW,222,9.0,12.0,55,0.00,,,0.00,,2013-02-13 20:31:00,
2013-02-13 12:41:00,52.0,35.0,30.36,WSW,242,6.0,10.0,52,0.00,,,0.00,,2013-02-13 20:41:00,
2013-02-13 12:52:00,52.0,35.0,30.36,WSW,242,6.0,10.0,52,0.00,,,0.00,,2013-02-13 20:52:00,
2013-02-13 13:01:00,52.0,34.0,30.36,SW,236,7.0,11.0,51,0.00,,,0.00,,2013-02-13 21:01:00,
2013-02-13 13:11:00,52.0,34.0,30.36,SW,236,7.0,11.0,51,0.00,,,0.00,,2013-02-13 21:11:00,
2013-02-13 13:21:00,52.0,39.0,30.35,SW,231,7.0,11.0,61,0.00,,,0.00,,2013-02-13 21:21:00,
2013-02-13 13:31:00,52.0,39.0,30.35,SSW,207,9.0,12.0,62,0.00,,,0.00,,2013-02-13 21:31:00,
2013-02-13 13:42:00,52.0,39.0,30.35,South,188,10.0,16.0,62,0.00,,,0.00,,2013-02-13 21:42:00,
2013-02-13 13:52:00,52.0,39.0,30.35,South,188,10.0,16.0,62,0.00,,,0.00,,2013-02-13 21:52:00,
2013-02-13 14:01:00,52.0,39.0,30.35,SSW,210,7.0,11.0,62,0.00,,,0.00,,2013-02-13 22:01:00,
2013-02-13 14:11:00,52.0,39.0,30.35,SSW,200,5.0,11.0,60,0.00,,,0.00,,2013-02-13 22:11:00,
2013-02-13 14:21:00,52.0,39.0,30.35,SSW,200,5.0,11.0,60,0.00,,,0.00,,2013-02-13 22:21:00,
2013-02-13 14:31:00,53.0,39.0,30.35,SW,235,5.0,11.0,58,0.00,,,0.00,,2013-02-13 22:31:00,
2013-02-13 14:41:00,53.0,39.0,30.35,SW,235,5.0,11.0,58,0.00,,,0.00,,2013-02-13 22:41:00,
2013-02-13 14:51:00,53.0,39.0,30.35,WSW,240,11.0,14.0,58,0.00,,,0.00,,2013-02-13 22:51:00,
2013-02-13 15:01:00,53.0,38.0,30.35,SW,214,11.0,15.0,57,0.00,,,0.00,,2013-02-13 23:01:00,
2013-02-13 15:11:00,53.0,38.0,30.36,SW,219,10.0,16.0,57,0.00,,,0.00,,2013-02-13 23:11:00,
2013-02-13 15:21:00,53.0,38.0,30.36,SW,219,10.0,16.0,57,0.00,,,0.00,,2013-02-13 23:21:00,
2013-02-13 15:31:00,53.0,38.0,30.36,SSW,198,11.0,14.0,57,0.00,,,0.00,,2013-02-13 23:31:00,
2013-02-13 15:41:00,53.0,38.0,30.36,SSW,198,11.0,14.0,57,0.00,,,0.00,,2013-02-13 23:41:00,
2013-02-13 15:52:00,54.0,39.0,30.36,SSW,213,9.0,13.0,56,0.00,,,0.00,,2013-02-13 23:52:00,
2013-02-13 16:01:00,54.0,39.0,30.36,SW,229,9.0,14.0,57,0.00,,,0.00,,2013-02-14 00:01:00,
2013-02-13 16:11:00,54.0,39.0,30.36,SW,229,9.0,14.0,57,0.00,,,0.00,,2013-02-14 00:11:00,
2013-02-13 16:21:00,53.0,37.0,30.37,West,273,5.0,10.0,55,0.00,,,0.00,,2013-02-14 00:21:00,
2013-02-13 16:31:00,53.0,37.0,30.37,NNW,332,3.0,6.0,55,0.00,,,0.00,,2013-02-14 00:31:00,
2013-02-13 16:41:00,53.0,37.0,30.37,NNW,332,3.0,6.0,55,0.00,,,0.00,,2013-02-14 00:41:00,
2013-02-13 16:52:00,52.0,36.0,30.37,WSW,258,2.0,3.0,55,0.00,,,0.00,,2013-02-14 00:52:00,
2013-02-13 17:01:00,52.0,36.0,30.37,West,259,1.0,3.0,55,0.00,,,0.00,,2013-02-14 01:01:00,
2013-02-13 17:11:00,51.0,35.0,30.37,West,274,1.0,2.0,55,0.00,,,0.00,,2013-02-14 01:11:00,
2013-02-13 17:21:00,51.0,35.0,30.37,West,274,1.0,2.0,55,0.00,,,0.00,,2013-02-14 01:21:00,
2013-02-13 17:31:00,51.0,35.0,30.37,North,1,1.0,2.0,55,0.00,,,0.00,,2013-02-14 01:31:00,
2013-02-13 17:41:00,51.0,35.0,30.37,North,1,1.0,2.0,55,0.00,,,0.00,,2013-02-14 01:41:00,
2013-02-13 17:51:00,50.0,35.0,30.37,East,92,1.0,2.0,57,0.00,,,0.00,,2013-02-14 01:51:00,
2013-02-13 18:01:00,49.0,35.0,30.38,East,92,0.0,1.0,58,0.00,,,0.00,,2013-02-14 02:01:00,
2013-02-13 18:11:00,48.0,34.0,30.37,SE,130,1.0,3.0,59,0.00,,,0.00,,2013-02-14 02:11:00,
2013-02-13 18:21:00,48.0,34.0,30.37,SE,130,1.0,3.0,59,0.00,,,0.00,,2013-02-14 02:21:00,
2013-02-13 18:31:00,48.0,34.0,30.38,SE,136,0.0,1.0,59,0.00,,,0.00,,2013-02-14 02:31:00,
2013-02-13 18:41:00,48.0,34.0,30.38,SE,136,0.0,1.0,59,0.00,,,0.00,,2013-02-14 02:41:00,
2013-02-13 18:51:00,48.0,34.0,30.38,SE,136,0.0,1.0,59,0.00,,,0.00,,2013-02-14 02:51:00,
2013-02-13 19:02:00,48.0,34.0,30.40,South,186,2.0,2.0,58,0.00,,,0.00,,2013-02-14 03:02:00,
2013-02-13 19:11:00,49.0,34.0,30.40,SW,221,1.0,1.0,55,0.00,,,0.00,,2013-02-14 03:11:00,
2013-02-13 19:21:00,49.0,34.0,30.40,SW,221,1.0,1.0,55,0.00,,,0.00,,2013-02-14 03:21:00,
2013-02-13 19:31:00,49.0,34.0,30.41,West,264,2.0,4.0,55,0.00,,,0.00,,2013-02-14 03:31:00,
2013-02-13 19:42:00,49.0,34.0,30.41,West,264,2.0,4.0,55,0.00,,,0.00,,2013-02-14 03:42:00,
2013-02-13 19:52:00,46.0,34.0,30.41,WSW,245,3.0,5.0,62,0.00,,,0.00,,2013-02-14 03:52:00,
2013-02-13 20:01:00,47.0,34.0,30.42,West,269,4.0,4.0,60,0.00,,,0.00,,2013-02-14 04:01:00,
2013-02-13 20:11:00,44.0,33.0,30.42,SW,232,5.0,9.0,65,0.00,,,0.00,,2013-02-14 04:11:00,
2013-02-13 20:21:00,44.0,33.0,30.42,SW,232,5.0,9.0,65,0.00,,,0.00,,2013-02-14 04:21:00,
2013-02-13 20:31:00,46.0,32.0,30.43,WSW,250,6.0,9.0,58,0.00,,,0.00,,2013-02-14 04:31:00,
2013-02-13 20:41:00,46.0,32.0,30.43,WSW,250,6.0,9.0,58,0.00,,,0.00,,2013-02-14 04:41:00,
2013-02-13 20:51:00,46.0,32.0,30.43,WSW,247,6.0,10.0,57,0.00,,,0.00,,2013-02-14 04:51:00,
2013-02-13 21:01:00,46.0,31.0,30.43,WSW,247,6.0,10.0,56,0.00,,,0.00,,2013-02-14 05:01:00,
2013-02-13 21:11:00,46.0,31.0,30.43,WSW,247,6.0,10.0,56,0.00,,,0.00,,2013-02-14 05:11:00,
2013-02-13 21:21:00,45.0,30.0,30.44,SW,221,7.0,10.0,56,0.00,,,0.00,,2013-02-14 05:21:00,
2013-02-13 21:31:00,45.0,29.0,30.44,SW,234,6.0,9.0,54,0.00,,,0.00,,2013-02-14 05:31:00,
2013-02-13 21:41:00,45.0,29.0,30.44,SW,234,6.0,9.0,54,0.00,,,0.00,,2013-02-14 05:41:00,
2013-02-13 21:52:00,45.0,29.0,30.45,WSW,237,7.0,11.0,53,0.00,,,0.00,,2013-02-14 05:52:00,
2013-02-13 22:01:00,45.0,29.0,30.45,SW,236,7.0,11.0,53,0.00,,,0.00,,2013-02-14 06:01:00,
2013-02-13 22:11:00,45.0,29.0,30.45,SSW,198,7.0,11.0,54,0.00,,,0.00,,2013-02-14 06:11:00,
2013-02-13 22:21:00,45.0,29.0,30.45,SSW,198,7.0,11.0,54,0.00,,,0.00,,2013-02-14 06:21:00,
2013-02-13 22:31:00,45.0,29.0,30.46,WSW,241,6.0,11.0,54,0.00,,,0.00,,2013-02-14 06:31:00,
2013-02-13 22:41:00,45.0,29.0,30.46,WSW,241,6.0,11.0,54,0.00,,,0.00,,2013-02-14 06:41:00,
2013-02-13 22:51:00,44.0,28.0,30.46,SW,222,7.0,12.0,54,0.00,,,0.00,,2013-02-14 06:51:00,
2013-02-13 23:01:00,44.0,29.0,30.46,SW,231,8.0,12.0,55,0.00,,,0.00,,2013-02-14 07:01:00,
2013-02-13 23:11:00,43.0,29.0,30.46,SW,219,10.0,14.0,57,0.00,,,0.00,,2013-02-14 07:11:00,
2013-02-13 23:21:00,43.0,29.0,30.46,SW,219,10.0,14.0,57,0.00,,,0.00,,2013-02-14 07:21:00,
2013-02-13 23:31:00,42.0,28.0,30.47,SSW,207,7.0,10.0,58,0.00,,,0.00,,2013-02-14 07:31:00,
2013-02-13 23:41:00,42.0,28.0,30.47,SSW,207,7.0,10.0,58,0.00,,,0.00,,2013-02-14 07:41:00,
2013-02-13 23:51:00,41.0,28.0,30.47,SSW,202,10.0,12.0,60,0.00,,,0.00,,2013-02-14 07:51:00,